Regional Weather Roundup
Issued by NWS

Home | Current Version | Previous Version | Graphics & Text | Print | Product List | Glossary On
Versions: 1 2 3 4 5 6 7 8 9 10 11 12 13 14 15 16 17 18 19 20 21 22 23 24 25 26 27 28 29 30 31 32 33 34 35 36 37 38 39 40 41 42 43 44 45 46 47 48 49 50
000
ASUS45 KTFX 301310
RWRMT
MONTANA REGIONAL WEATHER ROUNDUP
NATIONAL WEATHER SERVICE GREAT FALLS MT
700 AM MDT TUE JUN 30 2015

NOTE: "FAIR" INDICATES FEW OR NO CLOUDS BELOW 12000 FEET WITH NO
SIGNIFICANT WEATHER AND/OR OBSTRUCTIONS TO VISIBILITY.

MTZ001>007-043-301400-
WEST OF THE DIVIDE

CITY           SKY/WX    TMP DP  RH WIND       PRES   REMARKS
KALISPELL      SUNNY     62  53  72 CALM      30.03R
MISSOULA       SUNNY     64  61  90 CALM      30.09R
BUTTE          PTSUNNY   57  55  93 SE3       30.23R
MULLAN PASS    CLEAR     62  52  69 NW5       30.22R
DEER LODGE       N/A     57  55  94 CALM      30.20S
EUREKA           N/A     61  59  94 W3        30.07R VSB 0
HAMILTON         N/A     66  59  77 S12       30.12R
PLAINS           N/A     62  55  77 CALM      30.03S
RONAN            N/A     65  58  78 CALM      30.08R
THOMPSON FALLS   N/A     60  58  93 CALM      30.07S
$$

MTZ008-052>055-301400-
SOUTHWEST MONTANA

CITY           SKY/WX    TMP DP  RH WIND       PRES   REMARKS
BOZEMAN        MOSUNNY   61  58  90 N5        30.15R
DILLON         MOSUNNY   61  56  83 S10       30.19R
W YELLOWSTONE  MOSUNNY   55  54  94 CALM      30.28R
THREE FORKS      N/A     62  41  46 CALM      30.12R
TWIN BRIDGES     N/A     60  54  80 E8        30.14S
$$

MTZ009-010-012-014-046-048-049-054-301400-
EAST SLOPES AND CENTRAL MONTANA

CITY           SKY/WX    TMP DP  RH WIND       PRES   REMARKS
CUT BANK       SUNNY     64  54  69 W7        29.99R
GREAT FALLS    SUNNY     66  58  75 W6        30.01R
MALMSTROM AFB  SUNNY     68  59  72 NW7       30.01R
HELENA         MOSUNNY   68  58  70 SW7       30.09R
CONRAD           N/A     63  63 100 SW5       30.01S
$$

MTZ011-013-016-021-045-047-050-051-301400-
NORTH CENTRAL MONTANA

CITY           SKY/WX    TMP DP  RH WIND       PRES   REMARKS
HAVRE          SUNNY     69  56  62 W10       29.90S HAZE
CHINOOK          N/A     66  48  52 E3        29.89S VSB 1
FORT BENTON      N/A     70  61  73 S8        29.95F
$$

MTZ017>020-022>027-061-062-301400-
NORTHEAST MONTANA

CITY           SKY/WX    TMP DP  RH WIND       PRES   REMARKS
JORDAN           N/A     67  54  63 CALM      29.93R
SIDNEY         CLOUDY    70  59  68 N6        29.93S
WOLF POINT     HAZE      68  56  65 E12       29.92S VSB 3/4
MALTA            N/A     67  49  52 CALM      29.88S
PLENTYWOOD       N/A     64  57  77 CALM      29.96F
POPLAR           N/A     66  57  72 NE15      29.92S
$$

MTZ028>42-056>058-301400-
SOUTHCENTRAL AND SOUTHEAST MONTANA

CITY           SKY/WX    TMP DP  RH WIND       PRES   REMARKS
BAKER          CLOUDY    68  60  75 E12       29.94S
BILLINGS       PTSUNNY   68  57  68 SW13      30.02R
LIVINGSTON     PTSUNNY   63  58  83 NW9       30.12F
MILES CITY     HAZE      70  57  63 NE8       29.90F VSB 1
BIG TIMBER       N/A     66  55  68 SW14      30.09F
FORSYTH          N/A     73  57  56 CALM      29.91S
LAUREL           N/A     70  54  56 SW5       30.02R
ROUNDUP          N/A     68  58  70 SW13      29.91S
$$

REGIONAL REPORTS...DAKOTAS

CITY           SKY/WX    TMP DP  RH WIND       PRES   REMARKS
WILLISTON      FOG       65  62  90 N9        29.98R VSB 1
MINOT          CLOUDY    64  61  90 E7        29.94R FOG
DICKINSON      CLOUDY    68  61  78 SE7       29.94S
BEACH          FAIR      66  64  94 SE8       29.95S
CROSBY         FOG       63  63 100 NW6       29.99R VSB 1
BISMARCK       CLOUDY    67  62  84 S5        29.94F
GRAND FORKS    PTSUNNY   58  57  97 W3        29.96R FOG
FARGO          SUNNY     62  59  90 CALM      29.96S FOG
BUFFALO SD       N/A     67  62  84 NE8       29.88F
RAPID CITY     PTSUNNY   71  60  68 NW7       29.95S
$$

REGIONAL REPORTS...WYOMING/IDAHO/WASHINGTON

CITY           SKY/WX    TMP DP  RH WIND       PRES   REMARKS
GILLETTE       CLOUDY    67  57  70 S3        30.03R
SHERIDAN       PTSUNNY   66  56  70 CALM      30.01R
BUFFALO WY     CLOUDY    67  53  61 NW5       30.08R
CODY           CLOUDY    72  54  53 N7        30.10S
YELLOWSTONE LA   N/A     56  50  80 CALM      30.37S
IDAHO FALLS    PTSUNNY   62  57  83 CALM      30.13R
SALMON         CLOUDY    63  59  88 CALM      30.15S
BOISE          PTCLDY    74  56  53 SW3       30.00R
SPOKANE        PTCLDY    70  57  63 NE3       30.03R
$$

REGIONAL REPORTS...ALBERTA

CITY           SKY/WX    TMP DP  RH WIND       PRES   REMARKS
EDMONTON       LGT RAIN  59  54  82 E6        29.99R
CALGARY        PTSUNNY   59  57  94 VRB2      29.96R
LETHBRIDGE     MOSUNNY   63  55  77 W14       29.93R
MEDICINE HAT   SMOKE     61  57  88 NW3       29.89R VSB 3/4
WATERTON GATE    N/A     68  45  42 SW10G17     N/A
CARDSTON         N/A     63  52  67 NW5         N/A
MILK RIVER       N/A     61  54  77 NW10        N/A
ONEFOUR          N/A     64  39  39 E6          N/A
$$

REGIONAL REPORTS...SASKATCHEWAN

CITY           SKY/WX    TMP DP  RH WIND       PRES   REMARKS
SWIFT CURRENT  HAZE      61  54  77 SE7       29.97F VSB 1
REGINA         LGT RAIN  61  61 100 VRB2      29.98R VSB 5/8
SASKATOON      SMOKE     63  55  77 SW8       29.97S VSB 3/4
CYPRESS HILLS    N/A     59  41  51 SE8         N/A
VAL MARIE        N/A     59  52  77 NE5         N/A
ROCKGLEN         N/A     61  54  77 NE1         N/A
ASSINIBOIA       N/A     61  59  94 W5          N/A
$$


USA.gov is the U.S. government's official web portal to all federal, state and local government web resources and services.